Время (UTC), дата Ветер
(°,м/с) 
Видим.   Явления Облачность Т
(°С)
Тd
(°С)
f(%) Тe
(°С)
Pmin
(гПа)
dP
(гПа)
Po
(мм)
O2
(г/м3)
Тmin Tmax R s Состояние
почвы
00 01.11.15 240 (ЮЗ) 4000 м  {ливн. осадки}  8/3 600 м кучево-дожд., средняя 
[Cb cap|Ac trans]
+0 -5.5 66 -2  1018.5  0.1  738  298  -0.1    0.3  <0.5  равномерный
мокрый или
старый снег
100% 
03 01.11.15 220 (ЮЗ) 20000 м    5/3 600 м кучево-дожд., верхняя 
[Cb cap|Ci fib]
+0.2 -7.7 55 -1  1018.1  -0.2  738  298  -0.6         
06 01.11.15 260 (З) 20000 м    10/3 600 м кучево-дожд., средняя 
[Cb cap|Ac As]
+0.8 -7.7 53 1016.2  -1.9  736  297           
09 01.11.15 тихо ()   4000 м  ливневой снег  10/8 600 м кучево-дожд., средняя 
[Cb cap|Ac As]
-1 -2.9 87 -1  1015.4  -1  736  298           
12 01.11.15 250 (З) 4000 м  в посл. час ливневой снег  10/6 600 м кучево-дожд., средняя 
[Cb cap|Ac As]
-1.4 -3.7 84 -1  1015.2  -0.2  736  298    +1.4  0.5     
15 01.11.15 250 (З) 4000 м  слаб. ливневой снег  10/10 600 м кучево-дожд. 
[Cb cap]
-1.4 -4.1 82 -2  1015.9  0.7  736  299           
18 01.11.15 280 (З) 4000 м  {ливн. осадки}  9/8 600 м кучево-дожд., верхняя 
[Cb cap|Ci fib]
-2.8 -7.3 71 -4  1017  1.4  737  301           
21 01.11.15 320 (СЗ) 4000 м    10/10 600 м кучево-дожд. 
[Cb cap]
-3.4 -7 76 -3  1018.2  0.5  737  302           
00 02.11.15 280 (З) 4000 м  {ливн. осадки}  10/5 600 м кучево-дожд., средняя 
[Cb cap|Ac As]
-5.9 -9.4 76 -6  1020  1.3  738  305  -5.9    0.4  равномерный
сухой снег
100% 
03 02.11.15 300 (СЗ) 20000 м    9/6 600 м кучево-дожд., средняя 
[Cb cap|Ac trans]
-6.1 -9.2 79 -6  1020.6  0.6  739  305  -6.9         
06 02.11.15 320 (СЗ) 20000 м  слаб. ливневой снег  10/5 600 м кучево-дожд., верхняя 
[Cb cap|Cs]
-4.9 -11.7 59 -4  1021.3  0.9  740  305           
09 02.11.15 010 (С) 20000 м  слаб. ливневой снег  9/6 600 м кучево-дожд., верхняя 
[Cb cap|Ci fib]
-4.4 -10 65 -4  1021.3  0.1  740  304           
12 02.11.15 тихо ()   4000 м  {ливн. осадки}  10/8 600 м кучево-дожд., средняя 
[Cb cap|Ac As]
-6.6 -9.4 80 -7  1024.2  2.5  742  307    -4.1  0.2     
15 02.11.15 тихо ()   4000 м  слаб. ливневой снег  9/9 600 м кучево-дожд. 
[Cb cap]
-6.3 -9.5 78 -6  1027.4  3.1  744  308           
18 02.11.15 240 (ЮЗ) 4000 м  {ливн. осадки}  3/3 600 м кучево-дожд. 
[Cb cap]
-8.5 -11.3 80 -11  1029.4  1.7  745  311           
21 02.11.15 210 (ЮЗ) 4000 м    3/0 верхняя 
[Cc]
-8.9 -11.8 79 -12  1029.8  0.2  745  312           
00 03.11.15 210 (ЮЗ) 4000 м  слаб. ливневой снег  9/4 600 м кучево-дожд., верхняя 
[Cb cap|Ci fib]
-8.5 -10.9 83 -11  1029.8  0.2  745  311  -9.2    0.7  равномерный
сухой снег
100% 
03 03.11.15 240 (ЮЗ) 20000 м  слаб. ливневой снег  9/3 600 м кучево-дожд., верхняя 
[Cb cap|Ci fib]
-7.7 -10.9 78 -9  1031.2  1.3  746  311           
06 03.11.15 240 (ЮЗ) 20000 м  слаб. ливневой снег  10/6 600 м кучево-дожд., верхняя 
[Cb cap|Cs]
-5.5 -11.1 65 -7  1030.8  0.1  746  308           
09 03.11.15 тихо ()   20000 м  слаб. ливневой снег  10/6 600 м кучево-дожд., верхняя 
[Cb cap|Cs]
-5.5 -9.7 72 -6  1031  -0.3  746  308           
12 03.11.15 220 (ЮЗ) 4000 м  слаб. ливневой снег  8/8 600 м кучево-дожд. 
[Cb cap]
-8.9 -9.2 98 -9  1032  0.9  747  312    -5.1  0.2     
15 03.11.15 тихо ()   4000 м  {ливн. осадки}  3/0 верхняя 
[Ci fib]
-11.2 -11.2 100 -11  1032.8  0.5  747  315           
18 03.11.15 тихо ()   4000 м  {ливн. осадки}  9/4 2000 м средняя, верхняя 
[Ac trans|Ci fib]
-12 -12 100 -12  1033.4  0.4  748  316           
21 03.11.15 тихо ()   4000 м    9/6 2000 м средняя, верхняя 
[Ac trans|Ci fib]
-12.5 -13.1 95 -13  1033.4  748  317           
00 04.11.15 тихо ()   4000 м    4/0 верхняя 
[Ci fib]
-13.2 -13.8 95 -13  1033.9  0.3  748  318  -13.4    0.0  равномерный
сухой снег
100% 
06 04.11.15 040 (СВ) 4000 м  дымка  4/4 600 м кучево-дожд. 
[Cb cap]
-5.1 -8.4 78 -5  1033.6  0.2  748  308           
09 04.11.15 120 (ЮВ) 4000 м  дымка  9/8 600 м кучево-дожд., средняя 
[Cb cap|Ac lent]
-4.4 -8.7 72 -4  1033.5  0.1  749  307           
12 04.11.15 тихо ()   н/о  дымка  9/6 600 м кучево-дожд., средняя, верхняя 
[Cb cap|Ac lent|Ci fib]
-4.4 -7.5 79 -4  1033.4  -0.1  748  307    -2.4       
15 04.11.15 тихо ()   н/о  дымка  3/3 600 м кучево-дожд. 
[Cb cap]
-8.5 -9.6 92 -9  1033.2    748  312           
18 04.11.15 тихо ()   н/о  дымка  ясно 
-9 -9.7 95 -9  1032.7  -0.6  747  312           
21 04.11.15 тихо ()   н/о  дымка  ясно 
-10.5 -11.1 95 -11  1031.7  -1  747  314           
00 05.11.15 тихо ()   н/о  дымка  4/0 верхняя 
[Ci fib]
-10.8 -10.8 100 -11  1031.6  -0.3  746  314  -10.8      равномерный
сухой снег
100% 
06 05.11.15 100 (В) 4000 м  дымка  9/0 верхняя 
[Ci fib]
-4 -5.9 87 -4  1028.5  -1.2  745  305           
09 05.11.15 тихо ()   10 км    9/0 верхняя 
[Ci fib]
-2 -6.2 73 -2  1027.1  -1.1  744  303           
12 05.11.15 тихо ()   н/о  дымка  9/0 верхняя 
[Ci fib]
-6.2 -8.1 86 -6  1027.2  -0.5  744  307    -1.9       
15 05.11.15 250 (З) н/о  дымка  9/0 верхняя 
[Ci fib]
-7.6 -8.6 93 -7  1026.4  -0.9  743  309           
18 05.11.15 250 (З) н/о  дымка  ясно 
-9.6 -9.9 98 -9  1025.8  -0.8  742  311           
21 05.11.15 тихо ()   н/о  дымка  8/0 верхняя 
[Ci fib]
-10.3 -10.3 100 -10  1025.4  -0.5  742  312           
00 06.11.15 тихо ()   0500 м  переохл. туман  9/0 верхняя 
[Ci fib]
-11.6 -12.2 95 -12  1025.5  -0.1  742  313  -11.6      равномерный
сухой снег
100% 
06 06.11.15 060 (СВ) 10 км  {туман}  9/4 2000 м средняя, верхняя 
[Ac trans|Ci fib]
-2 -5.2 79 -1  1023.6  -0.5  742  302           
09 06.11.15 210 (ЮЗ) 10 км    9/6 2000 м средняя, верхняя 
[Ac trans|Ci fib]
-1.2 -5.9 70 -1  1023.2  -0.3  741  301           
12 06.11.15 010 (С) 4000 м    10/10 2000 м 
[Ns]
+0.1 -7.5 57 +1  1023.3  0.3  742  299    +0.3       
15 06.11.15 120 (ЮВ) 4000 м    10/4 2000 м средняя, верхняя 
[Ac trans|Cs]
+0.6 -8.5 50 +1  1023.2  -0.1  741  299           
18 06.11.15 тихо ()   4000 м    10/0 верхняя 
[Cs]
-2.8 -5.9 79 -3  1022.7  -0.8  741  302           
21 06.11.15 тихо ()   4000 м    10/0 верхняя 
[Cs]
-5.1 -6.8 88 -5  1022.8  -0.3  741  305           
00 07.11.15 тихо ()   4000 м    8/8 2000 м средняя 
[Ac trans]
-5.1 -7.6 83 -5  1022.4  -0.3  740  305  -6      равномерный
мокрый или
старый снег
100% 
03 07.11.15 тихо ()   20000 м    8/0 2000 м верхняя 
[Ci fib]
-5.2 -6.2 93 -5  1021.5  -0.9  740  304  -7.1         
06 07.11.15 070 (В) 20000 м    8/0 2000 м верхняя 
[Ci fib]
+1.6 -4.5 64 +2  1018.8  -1.8  738  296           
09 07.11.15 тихо ()   20000 м    8/0 2000 м верхняя 
[Cs]
+1.8 -4.7 62 +2  1016.9  -1.8  737  296           
12 07.11.15 тихо ()   4000 м    6/0 верхняя 
[Ci fib]
-3 -7.3 72 -3  1015.6  -1.9  736  300    +2.7       
15 07.11.15 100 (В) 4000 м    3/0 верхняя 
[Ci fib]
-4.2 -7.5 78 -4  1013.1  -2.5  734  301           
18 07.11.15 тихо ()   4000 м    9/6 2000 м средняя, верхняя 
[Ac trans|Ci fib]
-5.7 -7.9 84 -6  1011.1  -2.1  732  302           
21 07.11.15 010 (С) 4000 м    10/5 600 м кучево-дожд., средняя 
[Cb cap|Ac As]
-0.7 -5.6 69 1008.4  -2  731  296           
00 08.11.15 220 (ЮЗ) 3{11}  4000 м    9/6 600 м кучево-дожд., средняя, верхняя 
[Cb cap|Ac trans|Ci fib]
+3.2 -7.2 46 +2  1010.2  2.2  732  292  -6.2      равномерный
мокрый или
старый снег
100% 
03 08.11.15 220 (ЮЗ) 20000 м    9/3 1000 м верхняя 
[Sc|Ci fib]
+3.4 -6 50 +3  1012  1.8  734  293           
06 08.11.15 240 (ЮЗ) 20000 м    9/0 верхняя 
[Ci fib]
+7 -4 45 +6  1011.9  0.3  734  289           
09 08.11.15 170 (Ю) 1{11}  20000 м    9/3 600 м кучево-дожд., верхняя 
[Cb cap|Cc]
+5 -3.6 54 +6  1013.1  735  291           
12 08.11.15 200 (Ю) 4000 м    8/3 600 м кучево-дожд., средняя, верхняя 
[Cb cap|Ac lent|Ci fib]
+3.3 -2.4 66 +3  1014.7  1.3  736  293    +7.3       
15 08.11.15 220 (ЮЗ) 4000 м  {ливн. осадки}  8/4 600 м кучево-дожд., верхняя 
[Cb cap|Ci fib]
+1.4 -0.5 87 +1  1015.4  0.5  736  295           
18 08.11.15 тихо ()   4000 м  слаб. ливневой снег  9/9 600 м кучево-дожд. 
[Cb cap]
-0.4 -1.6 92 -0  1016.7  0.9  737  297           
21 08.11.15 270 (З) 4000 м  слаб. ливневой снег  8/8 600 м кучево-дожд. 
[Cb cap]
-2.1 -2.7 96 -2  1017.8  0.9  737  300           
00 09.11.15 тихо ()   4000 м  {ливн. осадки}  8/6 600 м кучево-дожд., средняя 
[Cb cap|Ac lent]
-4 -4.5 96 -4  1019.4  1.3  738  302  -4.4    равномерный
мокрый или
старый снег
100% 
03 09.11.15 210 (ЮЗ) 20000 м    9/4 2000 м средняя, верхняя 
[Ac lent|Ci fib]
-0.9 -5.5 71 1020.9  1.8  740  300           
06 09.11.15 240 (ЮЗ) 20000 м    9/6 600 м кучево-дожд., верхняя 
[Cb cap|Ci fib]
+0.8 -8.2 51 1021.4  0.7  740  298           
09 09.11.15 250 (З) 20000 м  слаб. ливневой снег  9/8 600 м кучево-дожд., верхняя 
[Cb cap|Ci fib]
-0.1 -7.3 58 -1  1022.3  0.7  741  299           
12 09.11.15 220 (ЮЗ) 4000 м  {ливн. осадки}  8/3 600 м кучево-дожд., верхняя 
[Cb cap|Ci fib]
-3.6 -9.4 64 -3  1023.3  0.6  741  304    +1.4  0.0     
15 09.11.15 220 (ЮЗ) 4000 м    9/3 600 м кучево-дожд., верхняя 
[Cb cap|Ci fib]
-4.4 -10 65 -6  1023.3  -0.1  741  304           
18 09.11.15 230 (ЮЗ) 4000 м    6/4 600 м кучево-дожд., верхняя 
[Cb cap|Ci fib]
-4.7 -9 72 -6  1022.8  0.5  741  305           
21 09.11.15 270 (З) 4000 м    9/0 верхняя 
[Ci fib]
-7.7 -10.3 82 -7  1022.3  -0.8  740  308           
00 10.11.15 тихо ()   4000 м    9/0 верхняя 
[Ci fib]
-9.3 -10.9 88 -9  1023.3  -0.1  741  310  -10.3      мокрый или
старый снег
50-90% 
06 10.11.15 050 (СВ) 0500 м  ливневой снег  10/8 600 м кучево-дожд., средняя 
[Cb cap|Ac As]
-5.1 -6.1 93 -5  1020  -1  739  304           
09 10.11.15 240 (ЮЗ) 20000 м  слаб. ливневой снег  9/9 600 м кучево-дожд. 
[Cb cap]
-3.2 -5.6 83 -3  1020.8  739  302           
12 10.11.15 240 (ЮЗ) 4000 м  {ливн. осадки}  9/4 600 м кучево-дожд., средняя 
[Cb cap|Ac trans]
-5.6 -8.6 79 -7  1023.5  2.4  741  306    -2.9     
15 10.11.15 210 (ЮЗ) 4000 м    10/3 600 м кучево-дожд., верхняя 
[Cb cap|Cs]
-7.4 -11.8 71 -9  1024.9  1.1  742  308           
18 10.11.15 220 (ЮЗ) 4000 м    10/4 2000 м средняя, верхняя 
[Ac lent|Cs]
-10.3 -12.3 85 -10  1025.5  0.2  742  312           
21 10.11.15 тихо ()   4000 м    8/0 верхняя 
[Ci]
-12 -13.3 90 -12  1024.7  -1.1  741  314           
00 11.11.15 тихо ()   4000 м    8/0 верхняя 
[Ci fib]
-13.8 -14.4 95 -14  1025.1  0.1  741  316  -13.8      равномерный
сухой снег
100% 
03 11.11.15 тихо ()   20000 м    8/1 600 м кучево-дожд., верхняя 
[Cb cap|Cc]
-14 -14.6 95 -14  1024.9  -0.2  741  316  -15.2         
06 11.11.15 040 (СВ) 20000 м    8/0 верхняя 
[Ci fib]
-8.3 -11.1 80 -8  1023  -0.8  741  309           
09 11.11.15 230 (ЮЗ) 20000 м    4/0 2000 м средняя, верхняя 
[Ac lent|Ci fib]
-7 -10.3 77 -7  1022.6  -0.4  740  307           
12 11.11.15 240 (ЮЗ) 4000 м    3/0 верхняя 
[Ci fib]
-13.1 -14.4 90 -13  1024  0.5  741  315    -6.1       
15 11.11.15 230 (ЮЗ) 4000 м    ясно 
-13.2 -13.8 95 -13  1024.3  0.3  741  315           
18 11.11.15 220 (ЮЗ) 4000 м    ясно 
-15.9 -16.5 95 -16  1025.1  0.3  741  318           
21 11.11.15 тихо ()   4000 м    ясно 
-17.8 -18.4 95 -18  1025.6  0.2  741  321           
00 12.11.15 тихо ()   4000 м    4/0 верхняя 
[Ci fib]
-18.2 -18.8 95 -18  1026.4  0.8  742  322  -18.3      равномерный
сухой снег
100% 
03 12.11.15 тихо ()   20000 м    9/4 1000 м верхняя 
[Sc|Ci fib]
-15.4 -16 95 -15  1026.6  0.7  742  318  -19         
06 12.11.15 280 (З) 20000 м  слаб. ливневой снег  6/6 600 м кучево-дожд. 
[Cb cap]
-10 -10.6 95 -10  1026.2  0.3  743  312           
09 12.11.15 тихо ()   20000 м  сильн. ливневой дождь{морось}  8/4 600 м кучево-дожд., верхняя 
[Cb cap|Ci fib]
-10.4 -12.4 85 -10  1026.4  0.2  743  312           
12 12.11.15 260 (З) 4000 м  {ливн. осадки}  9/4 600 м кучево-дожд., верхняя 
[Cb cap|Ci fib]
-13.2 -15.2 85 -13  1028  1.1  744  316    -10  0.0     
15 12.11.15 270 (З) 4000 м    8/8 1000 м 
[Sc]
-13.1 -15.1 85 -13  1028.7  0.7  744  316           
18 12.11.15 тихо ()   4000 м    6/3 1000 м верхняя 
[Sc|Ci fib]
-15.8 -17.1 89 -16  1029.1  -0.1  744  320           
21 12.11.15 230 (ЮЗ) 4000 м    3/0 верхняя 
[Ci fib]
-16.1 -17.4 90 -16  1029.2  0.1  744  320           
00 13.11.15 240 (ЮЗ) 4000 м    3/0 верхняя 
[Ci fib]
-15.6 -16.9 90 -16  1029.4  0.4  744  320  -16.9      равномерный
сухой снег
100% 
06 13.11.15 250 (З) 20000 м  слаб. снег  10/3 600 м средняя, верхняя 
[Cu hum|Ac lent|Cs]
-11.5 -14.3 80 -15  1028.9  -0.3  744  314           
09 13.11.15 290 (З) 20000 м  в посл. час ливневой снег  9/5 600 м кучево-дожд., средняя, верхняя 
[Cb cap|Ac trans|Ci fib]
-11.4 -14.9 75 -11  1030  745  315           
12 13.11.15 тихо ()   4000 м  слаб. ливневой снег  9/6 600 м кучево-дожд., верхняя 
[Cb cap|Ci fib]
-13.8 -15.8 85 -14  1032.8  2.4  747  318    -10.7  0.6     
15 13.11.15 060 (СВ) 4000 м  слаб. ливневой снег  9/6 600 м кучево-дожд., верхняя 
[Cb cap|Ci fib]
-17.7 -19.6 85 -18  1036  2.5  749  324           
18 13.11.15 240 (ЮЗ) 4000 м  {ливн. осадки}  6/0 600 м верхняя 
[Ci fib]
-21.2 -23.1 85 -22  1036.9  0.4  749  329           
21 13.11.15 230 (ЮЗ) 4000 м    4/0 верхняя 
[Ci fib]
-22.3 -24.2 84 -23  1038  0.9  750  331           
00 14.11.15 тихо ()   4000 м    8/0 верхняя 
[Ci fib]
-24 -25.9 84 -24  1039.2  0.9  751  333  -24    0.2  равномерный
сухой снег
100% 
06 14.11.15 тихо ()   2000 м  дымка  3/0 верхняя 
[Ci fib]
-17.7 -20.3 80 -18  1038.8  -0.1  751  325           
09 14.11.15 тихо ()   4000 м  дымка  ясно 
-17.4 -19.3 85 -17  1038.6  -0.1  751  325           
12 14.11.15 240 (ЮЗ) н/о  дымка  ясно 
-20.8 -22 90 -21  1039.5  0.3  751  329    -16.6       
15 14.11.15 тихо ()   н/о  слаб. снег  10/0 верхняя 
[Cs]
-21.4 -22.6 90 -21  1038.7  -0.8  750  330           
18 14.11.15 тихо ()   н/о  слаб. снег  10/0 верхняя 
[Cs]
-22.2 -23.5 89 -22  1038.1  -0.7  750  331           
21 14.11.15 тихо ()   н/о  дымка{снег}  10/0 верхняя 
[Cs]
-23 -24.3 90 -23  1037.1  -1.1  749  331           
00 15.11.15 тихо ()   н/о  слаб. снег  10/0 верхняя 
[Cs]
-23.6 -24.9 89 -24  1036.8  -0.4  749  332  -24    0.0  равномерный
сухой снег
100% 
06 15.11.15 тихо ()   20000 м  слаб. снег  10/0 верхняя 
[Cs]
-17.8 -20.4 80 -18  1035.1  -0.9  748  324           
09 15.11.15 тихо ()   20000 м  дымка{снег}  ясно 
-17.8 -19.7 85 -18  1035.4  0.3  748  324           
12 15.11.15 230 (ЮЗ) н/о  дымка{снег}  ясно 
-20.4 -22.3 85 -21  1036.2  0.5  749  328    -17.6  0.0     
15 15.11.15 240 (ЮЗ) н/о  слаб. снег  10/0 верхняя 
[Cs]
-20.6 -21.8 90 -21  1036.8  0.4  749  328           
18 15.11.15 тихо ()   н/о  слаб. снег  10/8 2000 м средняя, верхняя 
[Ac trans|Cs]
-19.4 -20.6 90 -19  1036.9  0.4  749  327           
21 15.11.15 250 (З) н/о  {снег}  10/3 2000 м средняя, верхняя 
[Ac lent|Cs]
-21.3 -22.5 90 -22  1037.6  0.3  750  329           
00 16.11.15 230 (ЮЗ) н/о  слаб. снег  10/5 2000 м средняя, верхняя 
[Ac lent|Cs]
-21 -22.2 90 -21  1038.6  750  329  -21.5    0.2  равномерный
сухой снег
100% 
06 16.11.15 040 (СВ) 20000 м  {снег}  8/3 600 м кучево-дожд., верхняя 
[Cb cap|Ci fib]
-17.5 -19.4 85 -18  1039.3  0.3  751  325           
09 16.11.15 тихо ()   20000 м    8/3 2000 м средняя, верхняя 
[Ac lent|Ci fib]
-16.8 -19.4 80 -17  1039.4  0.1  751  324           
12 16.11.15 230 (ЮЗ) 4000 м    9/5 2000 м средняя, верхняя 
[Ac trans|Ci fib]
-19.8 -21.7 84 -20  1040.5  0.6  752  328    -15.6  0.0     
15 16.11.15 тихо ()   4000 м  слаб. снег  10/0 2000 м средняя 
[Ac inh]
-17.7 -18.9 90 -18  1040  -0.1  752  325           
18 16.11.15 тихо ()   4000 м  слаб. снег  10/0 2000 м средняя 
[Ac inh]
-17.2 -18.4 91 -17  1039.4  -0.5  751  325           
21 16.11.15 тихо ()   4000 м  слаб. ливневой снег  8/5 600 м кучево-дожд., средняя 
[Cb cap|Ac lent]
-17 -17.6 95 -17  1039  0.6  751  324           
00 17.11.15 тихо ()   4000 м  слаб. ливневой снег  8/3 600 м кучево-дожд., верхняя 
[Cb cap|Ci fib]
-20.4 -21.6 90 -20  1039.7  0.3  751  329  -20.4    0.0  равномерный
сухой снег
100% 
03 17.11.15 тихо ()   20000 м  {ливн. осадки}  9/3 600 м кучево-дожд., верхняя 
[Cb cap|Cc]
-19.8 -21 90 -20  1039.9  0.2  752  328           
06 17.11.15 тихо ()   20000 м  {ливн. осадки}  3/0 верхняя 
[Cc]
-18 -19.9 85 -18  1039.3  -0.3  751  326           
09 17.11.15 тихо ()   20000 м    6/6 2000 м средняя 
[Ac lent]
-18.2 -20.1 85 -18  1039.6  0.3  752  326           
12 17.11.15 тихо ()   4000 м  слаб. ливневой снег  10/5 600 м кучево-дожд., верхняя 
[Cb cap|Cs]
-19 -20.2 90 -19  1040.5  0.6  752  327    -16.9  0.2     
15 17.11.15 240 (ЮЗ) 4000 м  слаб. ливневой снег  9/4 600 м кучево-дожд., верхняя 
[Cb cap|Ci fib]
-21.9 -23.2 90 -22  1040.8  -0.1  752  331           
18 17.11.15 250 (З) 4000 м  слаб. ливневой снег  9/3 600 м кучево-дожд., верхняя 
[Cb cap|Ci fib]
-23.5 -24.7 90 -24  1040.8  -0.1  752  333           
21 17.11.15 тихо ()   4000 м  слаб. ливневой снег  10/6 600 м кучево-дожд., верхняя 
[Cb cap|Cs]
-23 -24.3 90 -23  1040.7  -0.1  752  332           
00 18.11.15 тихо ()   4000 м  слаб. ливневой снег  9/6 600 м кучево-дожд., верхняя 
[Cb cap|Ci fib]
-21.9 -23.2 90 -22  1041  0.4  752  331  -24.2    0.2  равномерный
сухой снег
100% 
03 18.11.15 тихо ()   10 км  слаб. ливневой снег  9/9 600 м кучево-дожд. 
[Cb cap]
-21.6 -22.8 90 -22  1041.3  0.3  752  331           
06 18.11.15 320 (СЗ) 2000 м  слаб. ливневой снег  9/4 600 м кучево-дожд., средняя 
[Cb cap|Ac trans]
-19.6 -21.5 85 -20  1041  752  328           
09 18.11.15 010 (С) 20000 м  слаб. ливневой снег  6/3 600 м кучево-дожд., средняя, верхняя 
[Cb cap|Ac trans|Ci fib]
-19.4 -21.3 85 -20  1041.7  0.8  753  328           
12 18.11.15 270 (З) 4000 м  слаб. ливневой снег  9/4 600 м кучево-дожд., верхняя 
[Cb cap|Ci fib]
-22 -23.3 90 -22  1043.2  1.1  754  332    -18.5  0.9     
15 18.11.15 240 (ЮЗ) 4000 м  слаб. ливневой снег  8/4 600 м кучево-дожд., верхняя 
[Cb cap|Ci fib]
-23.7 -25 89 -24  1043.8  0.2  754  334           
18 18.11.15 240 (ЮЗ) 4000 м  слаб. ливневой снег  8/4 600 м кучево-дожд., верхняя 
[Cb cap|Ci fib]
-23.1 -24.4 89 -24  1043.9  0.3  754  334           
21 18.11.15 240 (ЮЗ) 4000 м  слаб. снег{ливн. осадки}  10/0 верхняя 
[Cs]
-23.6 -24.9 89 -24  1044.2  0.1  754  334           
00 19.11.15 250 (З) 4000 м  {ливн. осадки, снег}  8/8 600 м кучево-дожд. 
[Cb cap]
-24 -25.2 90 -24  1044.7  0.5  755  335  -24.3    0.8  равномерный
сухой снег
100% 
06 19.11.15 тихо ()   20000 м  {ливн. осадки}  8/3 600 м кучево-дожд., средняя, верхняя 
[Cb cap|Ac trans|Ci fib]
-18.9 -20.8 85 -19  1043.7  -0.6  754  328           
09 19.11.15 230 (ЮЗ) 20000 м    8/0 2000 м средняя, верхняя 
[Ac lent|Ci fib]
-19 -20.9 85 -19  1043.5  -0.2  754  328           
12 19.11.15 240 (ЮЗ) 4000 м    3/0 верхняя 
[Ci fib]
-22.4 -24.2 85 -23  1043.7  -0.1  754  333    -17.4  0.0     
15 19.11.15 тихо ()   4000 м    4/0 верхняя 
[Ci fib]
-23 -24.3 90 -23  1043.4  -0.5  754  333           
18 19.11.15 тихо ()   4000 м    ясно 
-24.8 -26 90 -25  1043  -0.7  753  336           
21 19.11.15 тихо ()   4000 м    ясно 
-25.7 -26.8 89 -26  1043.3  0.1  753  337           
03 20.11.15 тихо ()   4000 м    9/3 2000 м средняя, верхняя 
[Ac lent|Ci fib]
-26 -27.1 91 -26  1043.7  0.4  754  337  -27.2         
06 20.11.15 тихо ()   4000 м  дымка  8/3 2000 м средняя, верхняя 
[Ac lent|Ci fib]
-20.2 -22.1 85 -20  1042.7  754  330           
09 20.11.15 тихо ()   4000 м  дымка  9/0 верхняя 
[Ci fib]
-20.2 -22.1 85 -20  1041.9  -0.8  753  329           
12 20.11.15 тихо ()   н/о  слаб. снег  10/6 2000 м средняя, верхняя 
[Ac trans|Cs]
-22.4 -24.2 85 -22  1042.1  -0.1  753  332    -19.8  0.0     
15 20.11.15 тихо ()   н/о  слаб. снег  10/4 2000 м средняя, верхняя 
[Ac trans|Cs]
-22.9 -24.2 90 -23  1041.6  -0.7  752  333           
18 20.11.15 240 (ЮЗ) н/о  дымка{снег}  ясно 
-24.8 -26.6 85 -25  1041  -0.8  752  335           
21 20.11.15 тихо ()   н/о  дымка  ясно 
-25.4 -26.6 90 -25  1040.7  -0.3  752  336           
00 21.11.15 тихо ()   н/о  слаб. ливневой снег  3/3 600 м кучево-дожд. 
[Cb cap]
-25.6 -27.5 84 -26  1040.6  -0.2  751  336  -25.6    0.0  равномерный
сухой снег
100% 
06 21.11.15 тихо ()   4000 м  дымка  3/0 верхняя 
[Ci fib]
-21.4 -23.2 86 -21  1040.5  0.3  752  330           
09 21.11.15 тихо ()   4000 м  дымка  6/0 верхняя 
[Cc]
-20.7 -23.2 81 -21  1041  0.4  752  330           
12 21.11.15 240 (ЮЗ) н/о  слаб. снег  10/3 2000 м средняя, верхняя 
[Ac lent|Cs]
-23.3 -24.5 89 -24  1042.7  1.4  753  334    -20.2  0.0     
15 21.11.15 230 (ЮЗ) н/о  слаб. снег  10/3 2000 м средняя, верхняя 
[Ac trans|Cs]
-23.6 -25.5 85 -24  1043.3  0.4  753  334           
18 21.11.15 230 (ЮЗ) н/о  слаб. снег  10/3 2000 м средняя, верхняя 
[Ac lent|Cs]
-24.8 -26.6 85 -25  1043.8  0.4  754  336           
21 21.11.15 тихо ()   н/о  слаб. снег  10/5 2000 м средняя, верхняя 
[Ac lent|Cs]
-23.8 -25.6 84 -24  1044.3  0.5  754  335           
00 22.11.15 тихо ()   н/о  слаб. снег  10/10 2000 м 
[Ac As]
-22.6 -23.8 90 -23  1044.3  0.2  754  333  -25    0.0  равномерный
сухой снег
100% 
03 22.11.15 тихо ()   4000 м  слаб. снег  10/10 2000 м 
[Ac As]
-21.2 -22.4 90 -21  1044.6  0.6  755  331           
06 22.11.15 050 (СВ) 20000 м  в посл. час снег  8/3 2000 м средняя, верхняя 
[Ac trans|Ci fib]
-19.4 -21.3 85 -20  1044.5  0.2  755  329           
09 22.11.15 тихо ()   10 км    9/5 2000 м средняя, верхняя 
[Ac lent|Ci fib]
-19.7 -21.6 84 -20  1045.1  0.5  755  330           
12 22.11.15 тихо ()   4000 м  слаб. снег  10/4 2000 м средняя, верхняя 
[Ac trans|Cs]
-21.4 -22.6 90 -21  1046  0.7  756  332    -19  0.2     
15 22.11.15 270 (З) 4000 м  {снег}  8/5 2000 м средняя, верхняя 
[Ac lent|Ci fib]
-23.2 -24.4 89 -24  1046.3  756  335           
18 22.11.15 тихо ()   4000 м  слаб. снег  10/6 2000 м средняя, верхняя 
[Ac trans|Cs]
-22 -23.3 90 -22  1046.3  0.1  756  333           
21 22.11.15 240 (ЮЗ) 4000 м  {снег}  3/0 средняя 
[Ac lent]
-24.4 -26.2 85 -25  1046.6  756  336           
00 23.11.15 тихо ()   4000 м  {снег}  5/0 верхняя 
[Ci fib]
-25 -26.8 84 -25  1047  0.3  756  337  -25    0.3  равномерный
сухой снег
100% 
06 23.11.15 060 (СВ) 4000 м  дымка{снег}  9/0 верхняя 
[Ci fib]
-20.8 -22.7 85 -21  1047.1  -0.2  757  332           
09 23.11.15 тихо ()   4000 м  дымка  9/0 верхняя 
[Ci fib]
-20.9 -23.4 80 -21  1046.7  -0.3  756  332           
12 23.11.15 240 (ЮЗ) н/о  дымка  9/0 верхняя 
[Ci fib]
-23.5 -25.4 85 -24  1047.3  0.2  756  335    -20.2  0.0     
15 23.11.15 тихо ()   н/о  дымка  3/0 верхняя 
[Ci fib]
-24.4 -26.2 85 -24  1046.5  -0.9  756  336           
18 23.11.15 тихо ()   н/о  слаб. снег  10/5 2000 м средняя, верхняя 
[Ac lent|Cs]
-25.3 -27.2 85 -25  1045.3  -1.3  755  337           
21 23.11.15 270 (З) н/о  {снег}  9/0 верхняя 
[Ci fib]
-26.3 -28.1 85 -27  1044.1  -1.3  754  338           
00 24.11.15 тихо ()   н/о  дымка{снег}  6/0 верхняя 
[Ci fib]
-27 -28.2 90 -27  1043.1  -1.1  753  339  -27    0.0  равномерный
сухой снег
100% 
03 24.11.15 тихо ()   4000 м  дымка  ясно 
-26.3 -28.1 85 -26  1040.9  -1.9  752  337  -27.2         
06 24.11.15 тихо ()   4000 м  дымка  3/0 верхняя 
[Ci fib]
-19.6 -22.9 75 -20  1036.9  -3  749  327           
09 24.11.15 210 (ЮЗ) 4000 м  дымка  10/10 2000 м 
[Ac As]
-18.4 -20.3 85 -19  1032.3  -4.2  746  324           
12 24.11.15 тихо ()   н/о  дымка  10/0 верхняя 
[Cs]
-15.4 -16.7 90 -15  1026.3  -5.3  742  318    -15.4       
15 24.11.15 тихо ()   н/о  слаб. ливневой снег  10/10 600 м кучево-дожд. 
[Cb cap]
-12.8 -14.1 90 -13  1020.3  -5.5  738  313           
00 25.11.15 220 (ЮЗ) 4{10}  4000 м  слаб. ливневой снег  10/10 600 м кучево-дожд. 
[Cb cap]
-4 -5.5 89 -7  1017.1  0.4  737  302  -15.4    равномерный
сухой снег
100% 
06 25.11.15 220 (ЮЗ) 20000 м  слаб. ливневой снег  10/10 600 м кучево-дожд. 
[Cb cap]
-2.1 -3.9 87 -5  1014.3  -2.5  735  299           
09 25.11.15 230 (ЮЗ) 2000 м  ливневой снег  10/8 600 м кучево-дожд., средняя 
[Cb cap|As op]
-2.1 -3 94 -4  1012.6  -1.6  734  298           
12 25.11.15 230 (ЮЗ) 4{10}  4000 м  слаб. ливневой снег  10/8 600 м кучево-дожд., средняя 
[Cb cap|As op]
-1.4 -2.5 92 -4  1013  0.4  734  297    -1.3     
18 25.11.15 250 (З) 4000 м  слаб. ливневой снег  8/5 600 м кучево-дожд., средняя 
[Cb cap|Ac lent]
-0.6 -2.1 90 -1  1015.7  1.8  736  297           
21 25.11.15 290 (З) 4000 м  слаб. ливневой снег  10/3 600 м кучево-дожд., верхняя 
[Cb cap|Cs]
-1.9 -3.4 89 -3  1017.2  1.3  737  299           
00 26.11.15 270 (З) 4000 м  слаб. ливневой снег  10/3 600 м кучево-дожд., верхняя 
[Cb cap|Cs]
-4 -7.3 78 -5  1020.3  2.6  739  303  -4    11  равномерный
сухой снег
100% 
06 26.11.15 230 (ЮЗ) 20000 м  {ливн. осадки}  8/3 600 м кучево-дожд., верхняя 
[Cb cap|Ci fib]
-5.1 -9.2 73 -6  1023.2  0.2  741  305           
09 26.11.15 260 (З) 20000 м  {ливн. осадки}  9/3 600 м кучево-дожд., средняя, верхняя 
[Cb cap|Ac trans|Ci fib]
-6.1 -9.6 76 -6  1023.8  0.4  741  306           
12 26.11.15 тихо ()   4000 м  {ливн. осадки}  9/4 2000 м средняя, верхняя 
[Ac trans|Ci fib]
-10.6 -11.2 95 -11  1023.5  -0.8  741  312    -4  0.4     
15 26.11.15 тихо ()   4000 м    8/4 2000 м средняя, верхняя 
[Ac trans|Ci fib]
-10.9 -11.5 95 -11  1021.3  -2.2  739  311           
18 26.11.15 220 (ЮЗ) 4000 м    9/8 2000 м средняя, верхняя 
[Ac trans|Ci fib]
-6.9 -9 85 -8  1018.7  -2  737  306           
21 26.11.15 220 (ЮЗ) 4000 м  слаб. ливневой снег  9/8 600 м кучево-дожд., средняя 
[Cb cap|Ac trans]
-6.3 -8.6 84 -8  1017.8  -0.8  737  305           
00 27.11.15 210 (ЮЗ) 4000 м  слаб. ливневой снег  9/6 600 м кучево-дожд., средняя 
[Cb cap|Ac trans]
-5.1 -7.2 85 -8  1016  -1.5  736  303  -11.5    0.0  10  равномерный
сухой снег
100% 
03 27.11.15 тихо ()   20000 м  слаб. ливневой снег  10/10 600 м кучево-дожд. 
[Cb cap]
-4.2 -5.8 89 -4  1016  0.1  736  302           
06 27.11.15 260 (З) 20000 м  в посл. час ливневой снег  10/8 600 м кучево-дожд., верхняя 
[Cb cap|Cs]
-3 -5.4 83 -3  1015.7  -0.2  736  300           
09 27.11.15 тихо ()   20000 м  слаб. ливневой снег  10/8 600 м кучево-дожд., средняя 
[Cb cap|Ac trans]
-3.5 -5.6 85 -4  1016.5  0.7  736  301           
12 27.11.15 тихо ()   4000 м  слаб. ливневой снег  10/10 600 м кучево-дожд. 
[Cb cap]
-5.2 -6.9 88 -5  1019.1  2.4  738  304    -3  0.0     
06 28.11.15 110 (В) 10 км  {ливн. осадки}  4/3 600 м средняя 
[Cu hum|Ac trans]
-3.6 -4.7 92 -3  1019.8  -2.1  739  302           
09 28.11.15 тихо ()   4000 м  дымка  3/0 верхняя 
[Ci fib]
-6.2 -7.4 91 -6  1018.8  -1.3  738  305           
15 28.11.15 020 (С) 0500 м  переохл. туман  8/8 600 м кучево-дожд. 
[Cb cap]
-9 -9.7 95 -9  1014.9  -2.7  734  307           
18 28.11.15 220 (ЮЗ) н/о  дымка{туман}  8/3 2000 м средняя, верхняя 
[Ac trans|Ci fib]
-5.1 -5.8 95 -7  1011.9  -2.3  733  301           
06 29.11.15 220 (ЮЗ) 20000 м  в посл. час ливневой снег  10/8 600 м кучево-дожд., верхняя 
[Cb cap|Cs]
+1.3 -0.7 86 +1  1003.5  -1.6  727  292           
09 29.11.15 300 (СЗ) 20000 м  {ливн. осадки}  10/5 600 м кучево-дожд., средняя 
[Cb cap|Ac As]
+0.6 -0 96 +1  1001.3  -2.2  726  292           
12 29.11.15 220 (ЮЗ) 4000 м  слаб. ливневой снег  10/10 600 м кучево-дожд. 
[Cb cap]
+0.9 -0.2 92 -1  1002.9  1.7  727  292    +1.5     
18 29.11.15 210 (ЮЗ) 4000 м  {ливн. осадки}  3/0 верхняя 
[Ci fib]
-3 -5.7 82 -3  1007.5  1.3  730  298           
21 29.11.15 240 (ЮЗ) 4000 м  в посл. час ливневой снег  10/6 600 м кучево-дожд., верхняя 
[Cb cap|Cs]
-3.4 -6.2 81 -3  1008.4  0.9  730  299           
00 30.11.15 240 (ЮЗ) 4000 м  слаб. ливневой снег  10/10 600 м кучево-дожд. 
[Cb cap]
-3.9 -5.4 89 -3  1009.5  0.9  731  299  -4.9    13  равномерный
сухой снег
100% 
03 30.11.15 260 (З) 4000 м  ливневой снег  10/10 600 м кучево-дожд. 
[Cb cap]
-4.4 -6.7 84 -6  1011.4  1.8  732  301           
06 30.11.15 250 (З) 20000 м  слаб. ливневой снег  10/10 600 м кучево-дожд. 
[Cb cap]
-4.5 -8 76 -6  1013.8  2.3  734  302           
09 30.11.15 270 (З) 20000 м  слаб. ливневой снег  8/8 600 м кучево-дожд. 
[Cb cap]
-5.1 -6.8 88 -6  1017  736  303           
12 30.11.15 260 (З) 4000 м  слаб. ливневой снег  8/8 600 м кучево-дожд. 
[Cb cap]
-6 -9.9 74 -7  1021.2  3.9  739  306    -3.9     
15 30.11.15 280 (З) 4000 м  {ливн. осадки}  9/8 600 м кучево-дожд., средняя 
[Cb cap|Ac trans]
-6.2 -10.2 73 -9  1024.2  2.9  742  307           
18 30.11.15 260 (З) 4000 м  слаб. ливневой снег  10/10 600 м кучево-дожд. 
[Cb cap]
-6.3 -9.9 76 -6  1026.3  743  307           
21 30.11.15 250 (З) 4000 м  {ливн. осадки}  10/10 600 м кучево-дожд. 
[Cb cap]
-5.4 -9.2 75 -8  1027.2  1.1  744  307           
00 01.12.15 240 (ЮЗ) н/о  ливневой снег  10/10 600 м кучево-дожд. 
[Cb cap]
-5 -6.7 88 -6  1026.3  -0.9  743  306  -7.3    0.7  16  равномерный
сухой снег
100% 
09 01.12.15 260 (З) 20000 м    10/8 600 м кучево-дожд., средняя 
[Cb cap|As op]
-0.8 -3.3 83 1029.9  1.9  746  302           
12 01.12.15 250 (З) 4000 м    9/9 600 м кучево-дожд. 
[Cb cap]
-0.8 -2.6 88 1031  1.1  747  302    -0.7  0.7     
15 01.12.15 250 (З) 4000 м    9/8 600 м кучево-дожд., средняя 
[Cb cap|Ac trans]
-0.9 -3.1 85 -2  1031.6  0.5  747  303           
18 01.12.15 240 (ЮЗ) 4000 м    10/10 600 м кучево-дожд. 
[Cb cap]
-1 -2.6 89 1031.2  -0.4  747  302           
21 01.12.15 240 (ЮЗ) 4000 м  {ливн. осадки}  10/10 600 м кучево-дожд. 
[Cb cap]
-0.6 -2.4 88 -1  1030.3  -0.8  747  302           
00 02.12.15 230 (ЮЗ) н/о  ливневой снег  10/10 600 м кучево-дожд. 
[Cb cap]
-0.8 -1.7 94 -2  1030  -0.3  746  302  -1.2    0.6  18  равномерный
мокрый или
старый снег
100% 
03 02.12.15 250 (З) 20000 м  слаб. ливневой снег  10/10 600 м кучево-дожд. 
[Cb cap]
-0.8 -1.7 94 1030.8  0.8  747  302           
06 02.12.15 250 (З) 20000 м  в посл. час ливневой снег  9/8 600 м кучево-дожд., средняя 
[Cb cap|Ac trans]
+0.3 -1.4 88 +1  1030.2  -0.5  747  301           
Время (UTC), дата Ветер
(°,м/с) 
Видим.   Явления Облачность Т
(°С)
Тd
(°С)
f(%) Тe
(°С)
Pmin
(гПа)
dP
(гПа)
Po
(мм)
O2
(г/м3)
Тmin Tmax R s Состояние
почвы